星链-32873 (STARLINK-32873)

导读

STARLINK-32873是由美国于2025年2月1日08:00发射的星链卫星,星链是SpaceX打造的低轨卫星互联网星座项目,旨在为全球用户提供高速低延迟的宽带网络服务,该卫星入轨后将助力星链星座扩展覆盖范围,进一步提升星座的服务能力与全球网络覆盖的稳定性。

Basic Information
目录编号:
62857
目录名称:
STARLINK-32873
国际标识:
2025-022D
轨道中心:
EARTH
卫星名称:
星链-32873
卫星全名:
星链-32873 (STARLINK-32873)
卫星状态:
在轨 (已飞行580 天)
发射日期:
2025-02-01 UTC
国别 :
美国 (US)
星等 :
--
Orbit Information
数据来源 国际轨道数据
星历时间: 2026-09-04T05:40:52+0800
10小时前
查看轨道信息
半长轴: 6840.838km
偏心率: 0.0001191
轨道倾角: 53.160°
近地点辐角 87.348°
升交点赤经 19.125°
平近点角 272.766°
近地点: 461.886km
远地点: 463.516km
周期: 93.848分钟
每日圈数: 15.34401
Detailed Information
固有亮度:
5
最大亮度:
2.5
卫星平台:
Starlink V1.0
覆盖范围:
全球
运营商:
太空探索技术公司
运营商所在国:
美国
制造商(研发单位):
太空探索技术公司
制造商所在国:
美国
使用方式:
暂无
Satellite Introduction
Starlink 计划是 SpaceX 推出的全球卫星互联网项目,通过发射低轨道卫星,为全球尤其是偏远地区提供高速、低延迟的互联网服务。自 2019 年起,Starlink 已部署数千颗卫星,旨在缩小全球数字鸿沟,推动互联网普及。该项目还为军事、航空等行业提供通信支持,带来广泛经济效益。
2D Orbit Map
3D Orbit Map
Orbit Altitude Analysis Chart
Orbit Inclination Analysis Chart
Orbit Comprehensive Analysis Chart
View Comprehensive Chart
Conjunction Data List
Event ID Objects TCA Miss Dist (km) Collision Risk Probability Collision Risk Index (CRI) Action
CDM_260905-023005-943406-285721
2026-09-05T
02:30:40+0000
1.042 km
极远距离
2.025299E-5 中风险 0.61
CDM_260831-015306-190306-285721
OBJECT K (61903)
2026-08-31T
01:53:55+0000
1.091 km
极远距离
1.548148E-5 中风险 0.59
CDM_260905-005605-943406-285721
2026-09-05T
00:56:53+0000
1.567 km
极远距离
5.044547E-6 低风险 0.49
CDM_260904-075805-389306-285721
2026-09-04T
07:58:54+0000
1.855 km
极远距离
2.958405E-6 低风险 0.44
CDM_260905-170504-177206-285721
2026-09-05T
17:05:51+0000
2.370 km
极远距离
1.607597E-6 低风险 0.39
CDM_260906-090805-112806-285721
2026-09-06T
09:08:34+0000
2.915 km
极远距离
1.236345E-6 低风险 0.37
CDM_260904-195805-810506-285721
2026-09-04T
19:58:58+0000
2.366 km
极远距离
6.9417E-7 极低风险 0.32